{"data":{"norad_id":60408,"epoch":"2026-05-25T04:01:13.960416Z","epoch_age_seconds":70833,"freshness":"FRESH","line1":"1 60408U 24141L   26145.16752269  .00000216  00000+0  66427-5 0  9994","line2":"2 60408  53.1593  69.3221 0001279  88.2521 271.8644 15.69717371103759","mean_motion":15.69717371,"eccentricity":0.0001279,"inclination_deg":53.1593,"raan_deg":69.3221,"arg_perigee_deg":88.2521,"mean_anomaly_deg":271.8644,"bstar":6.6427e-6,"rev_number":10375,"period_min":91.736259444121,"perigee_km":358.84388744589,"apogee_km":360.56742759769,"semimajor_km":6737.8426575218,"source":"CELESTRAK","updated_at":"2026-05-25T13:38:19.269319Z"}}